EST,Max TemperatureF,Mean TemperatureF,Min TemperatureF,Max Dew PointF,MeanDew PointF,Min DewpointF,Max Humidity, Mean Humidity, Min Humidity, Max Sea Level PressureIn, Mean Sea Level PressureIn, Min Sea Level PressureIn, Max VisibilityMiles, Mean VisibilityMiles, Min VisibilityMiles, Max Wind SpeedMPH, Mean Wind SpeedMPH, Max Gust SpeedMPH,PrecipitationIn, CloudCover, Events, WindDirDegrees
2012-12-1,36,26,16,33,22,12,88,84,75,30.48,30.40,30.25,10,10,7,15,9,18,0.01,7,Snow,111
2012-12-2,50,44,37,50,46,34,100,97,71,30.23,29.98,29.90,10,6,0,20,13,26,0.56,8,Fog-Rain,241
2012-12-3,46,42,37,46,40,37,100,97,87,30.26,30.17,30.02,10,10,10,16,7,20,0.00,7,,28
2012-12-4,68,54,40,55,51,39,100,93,56,30.13,29.94,29.86,10,9,3,17,12,28,0.58,7,Rain,223
2012-12-5,46,34,20,46,31,14,100,82,55,30.36,30.06,29.89,10,10,5,16,11,23,0.09,7,Rain-Snow,291
2012-12-6,34,24,15,19,16,12,91,69,51,30.43,30.30,30.07,10,10,10,16,6,,0.00,2,,132
2012-12-7,40,36,32,34,26,17,95,69,51,30.07,30.02,29.99,10,10,10,14,11,,0.00,6,,147
2012-12-8,42,38,35,41,38,34,100,100,93,30.08,29.90,29.75,10,6,0,14,7,22,0.02,8,Fog-Rain,260
2012-12-9,35,30,26,36,28,22,100,91,80,30.34,30.19,29.88,10,10,5,15,7,,0.27,7,Rain,15
2012-12-10,54,44,33,52,42,32,100,97,82,29.85,29.60,29.50,10,9,2,21,13,32,1.12,8,Rain,225
2012-12-11,33,26,18,32,19,14,100,83,64,30.21,29.93,29.69,10,10,10,12,6,,0.01,6,Snow,357
2012-12-12,37,29,21,33,28,20,100,91,67,30.42,30.31,30.20,10,7,0,16,7,25,0.08,6,Fog-Rain-Snow,212
2012-12-13,41,31,21,33,26,19,99,84,62,30.45,30.37,30.21,10,10,10,13,6,,0.01,2,,173
2012-12-14,40,36,31,33,27,20,81,69,57,30.29,30.18,30.13,10,10,10,12,9,18,0.00,6,,255
2012-12-15,32,26,21,24,19,15,86,76,62,30.37,30.29,30.14,10,10,10,13,8,,0.00,4,,41
2012-12-16,38,34,30,35,31,23,94,81,63,30.11,29.92,29.80,10,10,10,24,16,33,0.06,7,Rain,144
2012-12-17,41,39,37,38,36,34,100,90,86,29.80,29.75,29.65,10,10,10,24,20,33,0.12,7,Rain,149
2012-12-18,41,36,32,41,38,32,100,100,93,29.63,29.52,29.44,10,9,4,15,8,24,0.57,8,Rain-Snow,16
2012-12-19,35,30,24,36,31,22,100,91,76,30.19,29.90,29.64,10,10,10,10,7,18,0.04,8,Rain,303
2012-12-20,37,28,19,34,25,19,100,86,62,30.25,29.98,29.57,10,10,10,32,8,45,0.12,4,Rain,126
2012-12-21,37,34,32,36,33,32,100,99,87,29.52,29.23,29.06,10,4,1,31,14,44,1.01,8,Rain-Snow,291
2012-12-22,32,26,20,32,22,14,100,90,74,29.84,29.44,29.14,10,2,0,21,13,34,0.02,8,Fog-Snow,289
2012-12-23,32,26,19,31,25,14,100,92,76,29.96,29.80,29.73,10,6,0,14,7,17,0.00,8,Fog-Snow,243
2012-12-24,28,19,10,21,16,8,100,83,70,30.08,30.02,29.97,10,10,3,15,9,24,0.00,7,Snow,90
2012-12-25,23,18,12,21,16,10,100,86,74,30.40,30.19,29.99,10,7,1,14,6,,0.00,7,Snow,36
2012-12-26,16,8,1,14,8,-2,93,89,78,30.42,30.20,29.90,10,4,0,23,5,29,0.00,3,Fog-Snow,48
2012-12-27,21,17,13,20,15,10,100,91,86,29.97,29.82,29.75,10,3,0,29,18,32,0.00,8,Fog-Snow,17
2012-12-28,23,19,15,21,17,12,100,90,79,30.12,30.07,29.97,10,10,10,10,5,,0.00,8,Snow,296
2012-12-29,25,18,10,25,18,9,100,94,85,30.05,29.82,29.70,10,3,1,13,5,,0.00,8,Snow,31
2012-12-30,19,14,10,14,9,5,92,87,67,30.21,29.92,29.78,10,4,2,13,5,17,0.00,7,Snow,295
2012-12-31,33,26,19,30,25,14,93,82,72,30.13,29.90,29.76,10,10,10,17,9,29,0.03,8,Rain-Snow,252